Flag for Japan Weather past 2 weeks in Suzuka, Japan

Now
77 °F

Passing clouds.


Feels Like: 79 °F
Forecast: 63 / 79 °F
Wind: 5 mph from Northeast

Location: Tsu

Current Time: Sep 16, 2014 at 9:56:42 AM

Latest Report: Sep 16, 2014 at 9:00 AM


Visibility: 13 mi

Pressure: 29.92 "Hg

Humidity: 63%

Dew point: 63 °F

Location of SuzukaLocation

Historic Weather in Suzuka — Graph

°F

Suzuka temperature yesterday

Maximum temperature yesterday: 80 °F (at 3:00 PM)
Minimum temperature yesterday: 66 °F (at 4:00 AM)
Average temperature yesterday: 73 °F

Past Weeks' High & Low Weather Summary

 TemperatureHumidityPressure
High88 °F (Sep 7, 3:00 PM)97% (Sep 5, 5:00 AM)29.98 "Hg (Sep 5, 5:00 AM)
Low66 °F (Sep 15, 4:00 AM)31% (Sep 12, 1:00 PM)29.64 "Hg (Sep 9, 1:00 AM)
Average75 °F74%29.86 "Hg
* Reported Sep 1 8:00 AM — Sep 16 8:00 AM, Suzuka, Weather by CustomWeather, © 2014

Note: Actual official high and low records may vary slightly from our data, if they occured in-between our weather recording intervals... More about our weather records

Advertising

Suzuka weather history for previous 24 hours

 ConditionsComfort  
Time TempWeatherWind HumidityBarometerVisibility
8:00 AM
Sep 16
75 °FMild.5 mph68%29.91 "HgN/A
7:00 AM73 °FMild.3 mph76%29.90 "HgN/A
6:00 AM72 °FMild.3 mph79%29.90 "HgN/A
5:00 AM72 °FMild.3 mph79%29.89 "HgN/A
4:00 AM72 °FMild.3 mph76%29.89 "HgN/A
3:00 AM71 °FMild.5 mph78%29.89 "HgN/A
2:00 AM71 °FMild.5 mph79%29.90 "HgN/A
1:00 AM71 °FMild.5 mph80%29.89 "HgN/A
12:00 AM72 °FMild.3 mph80%29.90 "HgN/A
11:00 PM
Sep 15
73 °FMild.5 mph78%29.91 "HgN/A
10:00 PM75 °FMild.3 mph69%29.91 "HgN/A
9:00 PM76 °FOvercast.8 mph66%29.92 "Hg9 mi
8:00 PM76 °FMild.8 mph64%29.91 "HgN/A
7:00 PM76 °FMild.12 mph67%29.89 "HgN/A
6:00 PM78 °FWarm.9 mph55%29.88 "HgN/A
5:00 PM77 °FWarm.10 mph73%29.89 "HgN/A
4:00 PM78 °FWarm.16 mph68%29.87 "HgN/A
3:00 PM80 °FPartly sunny.14 mph61%29.88 "Hg12 mi
2:00 PM78 °FWarm.8 mph67%29.90 "HgN/A
1:00 PM77 °FWarm.6 mph65%29.91 "HgN/A
12:00 PM76 °FMild.6 mph70%29.92 "HgN/A
11:00 AM75 °FMild.5 mph70%29.95 "HgN/A
10:00 AM73 °FMild.3 mph71%29.98 "HgN/A
9:00 AM73 °FOvercast.3 mph71%29.97 "Hg9 mi
Weather by CustomWeather, © 2014

See weather overviewHow to use our weather pages